Weather in Kievka

Kazakhstan     50˚15′42″N   71˚32′53″E
temp.,
°C
wind,
m/s
gust,
m/s
humid.,
%
clouds,
%
prec.,
mm/h
press.,
hPa
HPBL,
m
28 november, sat
sat2800:00−8˚ese3485100 0.0 102859
03:00−7˚e3686100 0.0 1026116
06:00−6˚ene5985100 0.0 1024216
09:00−5˚e61096100 2.7 1022347
12:00−3˚e71097100 6.3 1022409
15:00−1˚e3598100 1.6 1022249
18:00−4˚n81196100 3.8 1025319
21:00−10˚n91294100 1.8 1029442
29 november, sun
sun2900:00−12˚nnw71194100 3.0 1032526
03:00−12˚nnw61095100 1.3 1035499
06:00−12˚nw61094100 2.2 1038412
09:00−13˚nw61093100 0.4 1040379
12:00−14˚nw5893100 0.4 1042343
15:00−13˚nw589398 0.0 1043383
18:00−15˚nw479699 0.1 1046163
21:00−15˚nnw4796100 0.0 1048136
30 november, mon
mon3000:00−17˚n349798 0.0 104942
03:00−19˚n239788 0.0 104920
06:00−20˚nne239990 0.0 105020
09:00−21˚nne229953 0.0 105120
12:00−18˚ne239446 0.0 1051100
15:00−17˚nne22930 0.0 105139
18:00−20˚ene23930 0.0 105220
21:00−20˚e33940 0.0 105220
1 december, tue
tue100:00−20˚e34950 0.0 105232
03:00−20˚ene44950 0.0 105251
06:00−19˚ene45930 0.0 105259
09:00−18˚ene45930 0.0 105159
12:00−14˚ene410920 0.0 1051274
15:00−11˚e511870 0.0 1050329
18:00−13˚e59890 0.0 1050164
21:00−13˚e511880 0.0 1050204
2 december, wed
wed200:00−14˚e511900 0.0 1050204
03:00−15˚e59890 0.0 1049150
06:00−15˚ene59850 0.0 1048137
09:00−15˚e511850 0.0 1048194
12:00−12˚e512800 0.0 1046311
15:00−11˚e5108140 0.0 1043266
18:00−13˚e498270 0.0 1042158
21:00−13˚e4782100 0.0 1040139